#timestamp,LO_Frequency,Hit,StdDev 
1713679215.5,286046992.7,N
1713679235.3,286046993.3,N
1713679255.2,286046995.7,N
1713679275.0,286047001.2,N
1713679275.9,286047001.2,N
1713679295.8,286046995.2,N
1713679315.6,286046996.7,N
1713679335.4,286047011.9,N
1713679355.3,286047000.4,N
1713679375.1,286047002.5,N
1713679395.8,286047000.2,N
1713679415.7,286047002.7,N
1713679435.5,286047000.6,N
1713679455.4,286047001.8,N
1713679475.2,286047003.4,N
1713679495.0,286047008.8,N
1713679495.9,286047008.8,N
1713679515.8,286047011.6,N
1713679535.6,286047014.6,N
1713679555.4,286047013.2,N
1713679575.3,286047014.7,N
1713679595.1,286047011.9,N
1713679615.9,286047010.9,N
1713679635.7,286047003.3,N
1713679655.5,286047004.8,N
1713679675.4,286047006.2,N
1713679695.2,286047014.6,N
1713679715.0,286047015.9,N
1713679715.9,286047015.9,N
1713679735.8,286047018.4,N
1713679755.6,286047019.4,N
1713679775.5,286047016.9,N
1713679795.3,286047020.4,N
1713679815.1,286047020.3,N
1713679835.9,286047017.8,N
1713679855.7,286047012.9,N
1713679875.5,286047016.7,N
1713679895.4,286047017.4,N
1713679915.2,286047024.5,Y
1713679935.0,286047008.4,P
1713679936.0,286047008.4,P
1713679955.8,286047005.3,P
1713679975.6,286047007.1,Y
1713679995.5,286046992.8,P
1713680015.3,286046992.3,N
1713680035.1,286046986.0,N
1713680055.9,286046986.1,N
1713680075.7,286046983.0,N
1713680095.5,286046984.9,N
1713680115.4,286046988.2,N
1713680135.2,286046993.1,N
1713680155.1,286046999.3,N
1713680156.0,286046999.3,N
1713680175.8,286046995.1,N
1713680195.6,286046993.7,N
1713680215.5,286046991.8,N
1713680235.3,286046983.0,N
1713680255.1,286046985.7,N
1713680275.9,286046989.8,N
1713680295.7,286046986.5,N
1713680315.6,286046981.5,N
1713680335.4,286046988.0,N
1713680355.2,286046986.4,N
1713680375.1,286046987.4,N
1713680376.0,286046987.4,N
1713680395.8,286046989.0,N
1713680415.6,286046999.7,N
1713680435.5,286047004.2,N
1713680455.3,286047001.5,N
1713680475.2,286046998.1,N
1713680495.9,286046996.1,N
1713680515.7,286046995.8,N
1713680535.6,286046995.3,N
1713680555.4,286046995.9,N
1713680575.2,286046990.6,N
1713680595.1,286046996.6,N
1713680596.0,286046996.6,N
1713680615.8,286047000.2,N
1713680635.7,286046998.3,N
1713680655.5,286046999.9,N
1713680675.3,286047001.2,N
1713680695.2,286047001.3,N
1713680715.0,286047000.2,N
1713680715.9,286047000.2,N
1713680735.8,286046999.3,N
1713680755.6,286046993.3,N
1713680775.4,286046994.2,N
1713680795.3,286046994.1,N
1713680815.1,286046987.7,N
1713680835.8,286046990.7,N
1713680855.7,286046989.0,N
1713680875.5,286046988.2,N
1713680895.4,286046981.0,Y
1713680915.2,286046987.1,P
1713680935.0,286046989.2,N
1713680935.9,286046989.2,P
1713680955.8,286046981.0,Y
1713680975.6,286046991.7,P
1713680995.4,286046994.9,P
1713681015.3,286046998.4,N
1713681035.1,286047001.4,N
1713681055.9,286047007.9,N
1713681075.7,286047008.7,N
1713681095.5,286047002.0,N
1713681115.4,286047003.8,N
1713681135.2,286047005.2,N
1713681155.0,286047011.2,N
1713681155.9,286047011.2,N
1713681175.8,286047013.5,N
1713681195.6,286047010.4,N
1713681215.5,286047010.2,N
1713681235.3,286047009.9,N
1713681255.1,286047016.7,N
1713681275.9,286047015.4,N
1713681295.7,286047014.4,N
1713681315.5,286047009.7,N
1713681335.4,286047005.7,N
1713681355.2,286047005.5,N
1713681375.0,286046997.1,N
1713681376.0,286046997.1,N
1713681395.8,286046994.7,N
1713681415.6,286046992.6,N
1713681435.5,286046996.9,N
1713681455.3,286047005.1,N
1713681475.1,286047004.5,N
1713681495.9,286047004.4,N
1713681515.7,286047007.7,N
1713681535.5,286047015.5,N
1713681555.4,286047015.8,N
1713681575.2,286047023.7,Y
1713681595.1,286047008.8,P
1713681596.0,286047008.8,P
1713681615.8,286047006.9,P
1713681635.6,286047008.5,Y
1713681655.5,286046997.2,P
1713681675.3,286046993.3,N
1713681695.2,286047005.6,N
1713681715.9,286047006.4,N
1713681735.7,286047017.1,N
1713681755.6,286047015.0,N
1713681775.4,286047023.6,N
1713681795.2,286047022.4,N
1713681815.1,286047026.7,N
1713681816.0,286047026.7,N
1713681835.8,286047022.2,N
1713681855.7,286047016.2,N
1713681875.5,286047014.7,N
1713681895.3,286047015.6,N
1713681915.2,286047022.5,N
1713681935.9,286047020.9,N
1713681955.7,286047025.1,N
1713681975.6,286047032.4,Y
1713681995.4,286047010.1,P
1713682015.3,286047015.6,P
1713682035.1,286047016.9,P
1713682036.0,286047016.9,Y
1713682055.8,286046997.1,P
1713682075.7,286046995.8,N
1713682095.5,286046995.8,N
1713682115.3,286046990.7,N
1713682135.2,286046988.3,N
1713682155.0,286046985.3,N
1713682155.9,286046985.3,N
1713682175.8,286046991.8,N
1713682195.6,286046989.5,N
1713682215.4,286046986.2,N
1713682235.3,286046979.2,N
1713682255.1,286046977.9,N
1713682275.9,286046983.1,N
1713682295.7,286046984.4,N
1713682315.5,286046981.9,N
1713682335.4,286046986.4,N
1713682355.2,286046992.2,N
1713682375.0,286046985.4,N
1713682376.0,286046985.4,N
1713682395.8,286046983.8,N
1713682415.6,286046980.1,N
1713682435.5,286046980.8,N
1713682455.3,286046980.7,N
1713682475.1,286046984.6,N
1713682495.9,286046991.4,N
1713682515.7,286046988.9,N
1713682535.6,286046995.4,N
1713682555.4,286046999.3,N
1713682575.2,286046998.2,N
1713682595.1,286047004.3,N
1713682596.0,286047004.3,N
1713682615.8,286047002.3,N
1713682635.7,286047003.3,N
1713682655.5,286047001.2,N
1713682675.3,286046992.3,N
1713682695.2,286046986.3,N
1713682715.0,286046986.0,N
1713682715.9,286046986.0,N
1713682735.8,286046987.6,N
1713682755.6,286046988.2,N
1713682775.4,286046990.9,N
1713682795.3,286046997.0,N
